www.pogodaiklimat.ru

Погода и климат >> Архив погоды >> Россия >> Псковская область >> Сущево


ПОГОДА в Сущево

  • Прогноз погоды в Сущево
  • Монитор погоды в Сущево

АРХИВ ПОГОДЫ в Сущево

Время (UTC), дата Ветер
(напр.,м/с)
 
Видим.   Явления Облачность Т
(С)
Тd
(С)
f
(%)
Тe
(С)
Тes
(С)
Комфортность P
(гПа)
Po
(гПа)
Тmin
(С)
Tmax
(С)
R
(мм)
R24
(мм)
S
(см)
18 17.06 СЗ 1 20 км 10/10 600 м
[Cb calv]
+18.0 +16.0 88 +19 +19 1014.5 1001.6 +25.1 0.4
21 17.06 СЗ 1 н/о н/о +16.2 +15.5 96 +17 +17 1015.5 1002.6
00 18.06 СЗ 2 н/о н/о +13.6 +12.8 95 +13 +13 1016.2 1003.2
03 18.06 СЗ 2 н/о н/о +14.0 +13.3 96 +13 +13 1016.9 1003.9 +13.5 0.5
06 18.06 СЗ 2 20 км ясно +18.0 +13.5 75 +19 +26 1017.5 1004.7 +13.5 0.7
09 18.06 СЗ 3 н/о н/о +21.6 +12.1 55 +24 +24 комфорт 1017.5 1004.8
12 18.06 СЗ 3 н/о н/о +23.8 +11.6 46 +25 +25 комфорт 1017.2 1004.6
15 18.06 СЗ 2 н/о н/о +23.9 +11.9 47 +26 +26 жарко 1016.7 1004.1
18 18.06 штиль 0 20 км ясно +21.7 +13.9 61 +25 +25 комфорт 1016.7 1004.1 +24.1
21 18.06 штиль 0 н/о н/о +13.4 +12.8 96 +13 +13 1017.7 1004.7
00 19.06 штиль 0 н/о н/о +12.3 +11.2 93 +12 +12 1018.8 1005.7
03 19.06 штиль 0 н/о н/о +12.7 +11.9 95 +12 +12 1019.1 1006.0 +11.5
06 19.06 С 1 20 км ясно +19.7 +13.9 69 +23 +31 комфорт 1019.0 1006.2 +11.5
09 19.06 СЗ 1 н/о н/о +23.4 +13.9 55 +27 +27 душно 1018.6 1006.0
12 19.06 СЗ 2 н/о н/о +25.5 +11.2 41 +27 +27 жарко 1017.7 1005.2
15 19.06 СЗ 1 н/о н/о +27.5 +13.4 42 +29 +29 жарко 1016.3 1003.9
18 19.06 штиль 0 20 км ясно +23.8 +15.6 60 +27 +27 жарко 1015.6 1003.1 +29.7
21 19.06 штиль 0 н/о н/о +14.6 +13.8 95 +14 +14 1016.4 1003.4
00 20.06 штиль 0 н/о н/о +12.1 +11.4 95 +11 +11 1016.5 1003.4
03 20.06 Ю 2 н/о н/о +15.0 +12.9 87 +15 +15 1016.4 1003.5 +11.9
06 20.06 Ю 1 20 км ясно +24.7 +15.9 58 +28 +37 душно 1015.7 1003.2 +11.9
09 20.06 Ю 2 н/о н/о +26.1 +11.9 41 +27 +27 жарко 1015.3 1002.9
12 20.06 Ю 2 н/о н/о +27.9 +11.9 37 +29 +29 жарко 1014.6 1002.2
15 20.06 ЮВ 1 н/о н/о +27.2 +13.6 43 +29 +29 жарко 1013.4 1001.0
18 20.06 ЮВ 1 20 км ясно +23.0 +14.8 60 +27 +27 душно 1013.1 1000.6 +28.8
21 20.06 ЮВ 1 н/о н/о +18.1 +15.2 83 +19 +19 1013.5 1000.8
00 21.06 ЮВ 1 н/о н/о +16.6 +14.1 85 +17 +17 1013.6 1000.8
03 21.06 Ю 1 н/о н/о +17.0 +14.6 86 +18 +18 1013.3 1000.5 +16.2
06 21.06 ЮВ 1 20 км 10/0
[]
+19.0 +16.6 86 +22 +26 комфорт 1013.1 1000.4 +16.2
09 21.06 Ю 3 н/о н/о +24.1 +18.0 69 +28 +28 душно 1012.9 1000.4
12 21.06 ЮЗ 2 н/о н/о +26.6 +18.4 61 +31 +31 душно 1012.2 999.8
15 21.06 ЮВ 1 н/о н/о +17.9 +17.6 98 +19 +19 1012.7 1000.0 11
18 21.06 штиль 0 20 км 5/0
[Ci fib]
+19.5 +18.7 95 +22 +22 комфорт 1012.4 999.7 +27.9 12
21 21.06 ЮЗ 1 н/о н/о +18.6 +17.8 95 +21 +21 комфорт 1013.3 1000.6
00 22.06 штиль 0 н/о н/о +16.8 +16.3 97 +17 +17 1013.2 1000.4
03 22.06 штиль 0 н/о н/о +17.6 +17.3 98 +18 +18 1014.2 1001.4 +16.7
06 22.06 СЗ 2 20 км 10/8 600 м
[Sc diur, vesp As trans]
+19.4 +17.6 89 +22 +23 комфорт 1014.9 1002.2 +16.7
09 22.06 СЗ 2 н/о н/о +20.3 +17.8 86 +24 +24 комфорт 1016.1 1003.4
12 22.06 СЗ 3 н/о н/о +24.0 +17.0 65 +28 +28 душно 1016.3 1003.8
15 22.06 СЗ 3 н/о н/о +23.3 +12.4 50 +26 +26 жарко 1017.0 1004.4 0.6
18 22.06 СЗ 2 20 км ясно +19.1 +10.9 59 +21 +21 комфорт 1019.2 1006.4 +24.6 0.8
21 22.06 СЗ 1 н/о н/о +11.8 +9.1 84 +12 +12 1021.4 1008.2
00 23.06 СЗ 1 н/о н/о +9.2 +7.4 88 +9 +9 1022.4 1009.1
03 23.06 СЗ 1 н/о н/о +10.0 +7.9 87 +10 +10 1023.9 1010.6 +7.8
06 23.06 штиль 0 20 км ясно +17.3 +10.3 63 +17 +27 1024.2 1011.3 +7.8
09 23.06 С 1 н/о н/о +18.9 +10.2 57 +21 +21 комфорт 1024.2 1011.3
12 23.06 СЗ 1 н/о н/о +21.9 +10.7 49 +24 +24 комфорт 1023.7 1011.0
15 23.06 штиль 0 н/о н/о +20.9 +9.2 47 +22 +22 комфорт 1022.7 1009.9
18 23.06 штиль 0 20 км ясно +19.9 +11.6 59 +21 +21 комфорт 1022.5 1009.7 +24.0
21 23.06 штиль 0 н/о н/о +11.0 +10.4 96 +10 +10 1024.0 1010.8
00 24.06 штиль 0 н/о н/о +8.4 +8.1 98 +7 +7 1025.0 1011.6
03 24.06 штиль 0 н/о н/о +10.3 +9.9 97 +9 +9 1025.4 1012.1 +7.4
06 24.06 штиль 0 20 км 4/0
[Ci fib]
+20.3 +11.6 57 +22 +31 комфорт 1025.3 1012.5 +7.4
09 24.06 СЗ 3 н/о н/о +21.4 +12.2 56 +24 +24 комфорт 1025.7 1012.9

 

Местоположение метеостанции Сущево (Псковская область, Россия): широта 57.00 долгота 29.90 высота над уровнем моря 108 м.

В архиве по умолчанию представлена погода в Сущево за последнюю неделю. Архивные данные за месяц целиком и за предыдущие месяцы, начиная с января 2011 года, Вы можете получить, выбрав интересующий диапазон дат из раскрывающегося списка и нажав кнопку "Ввод!".


*Определитесь, кто Вы:
робот инопланетянин человек

Внимание! Время в таблицах - всемирное. Для получения местного времени необходимо прибавить поправку, которая равна 3 ч.

Смотрите также архив погоды в соседних городах и на ближайших метеорологических станциях:

Погода в Пушкинских Горах (Псковская область, Россия) (61 км)
Погода в Опочке (Псковская область, Россия) (78 км)
Погода в Холме (Новгородская область, Россия) (79 км)
Погода в Великих Луках (Псковская область, Россия) (85 км)
Погода в Дно (Псковская область, Россия) (91 км)
Погода в Торопце (Тверская область, Россия) (120 км)
Погода в Езерище (Витебская область, Беларусь) (129 км)
Погода в Пскове (Псковская область, Россия) (131 км)
Погода в Старой Руссе (Новгородская область, Россия) (142 км)
Погода в Стругах-Красных (Псковская область, Россия) (149 км)

Пояснения к столбцам:

Ветер - указаны скорость ветра в м/с - средняя за 10 мин, порывы в срок и между сроками (в фигурных скобках) и направление, откуда дует ветер: С - северный, СВ - северо-восточный, В - восточный, ЮВ - юго-восточный, Ю - южный, ЮЗ - юго-западный, З - западный, СЗ - северо-западный.
Видимость - горизонтальная дальность видимости в метрах или километрах. При видимости от 1 до 10 км при отсутствии осадков обычно наблюдается дымка, при ухудшении видимости до 1 км и менее - туман. В сухую погоду видимость может ухудшаться дымом, пылью или мглою.
Явления - указаны атмосферные явления, наблюдавшиеся в срок или в последний час перед сроком; фигурными скобками обозначены явления, наблюдавшиеся между сроками (за 1-3 часа до срока); квадратными скобками обозначены град или гололедные отложения с указанием их диаметра в мм.
Облачность - указаны через наклонную черту общая и нижняя облачность в баллах и высота нижней границы облаков в метрах; квадратными скобками обозначены формы облаков: Ci - перистые, Cs - перисто-слоистые, Cc - перисто-кучевые, Ac - высококучевые, As - высокослоистые, Sc - слоисто-кучевые, Ns - слоисто-дождевые, Cu - кучевые, Cb - кучево-дождевые. Подробнее классификацию облаков см. в Атласе облаков (PDF).
T - Температура воздуха - температура, измеренная на высоте 2 м над землей.
Td - Температура точки росы - температура, при понижении до которой содержащийся в воздухе водяной пар достигнет насыщения.
f - Относительная влажность воздуха - влажноcть воздуха, измеренная на высоте 2 м над землей.
Te - Эффективная температура - температура, которую ощущает одетый по сезону человек в тени. Характеристика душности погоды. При расчете учитывается влияние влажности воздуха и скорости ветра на теплоощущения человека.
Tes - Эффективная температура на солнце - температура, которую ощущает человек, с поправкой на солнечный нагрев. Характеристика знойности погоды. Зависит от высоты солнца над горизонтом, облачности и скорости ветра. Ночью, в пасмурную погоду, а также при ветре 12 м/с и более поправка равна нулю.
P - Атмосферное давление - приведенное к уровню моря атмосферное давление.
Po - Атмосферное давление - измеренное на уровне метеостанции атмосферное давление.
Tmin - Минимальная температура - минимум температуры воздуха на высоте 2 м над землей.
Tmax - Максимальная температура - максимум температуры воздуха на высоте 2 м над землей.
R - Количество осадков - Количество выпавших осадков за период времени, мм. При наведении курсора мыши на число - период времени, за который выпало указанное количество осадков.
R24 - Количество осадков - Количество выпавших осадков за 24 часа, мм.
S - Снежный покров - Высота снежного покрова, см. При наведении курсора мыши на число - состояние снежного покрова и степень покрытия местности в баллах.